VOI3043 MMLO-MMTJ

Flight info

Callsign VOI3043
Flight time 2h 42m
Altitude 36000
Route AMOVA3 BJX J13 AGU UQ104 AVRIL UJ3 TANRI TANRI1B
Aircraft A21N/M-SDE3FGHIRWY/LB1

Departure

Time 2026-05-08 20:18
Airport Guanajuato International Airport (MMLO)

Arrival

Time 2026-05-08 23:00
Airport General Abelardo L. Rodriguez International Airport (MMTJ)
Time Latitude Longitude Altitude Speed Heading
2026-05-08 20:15 20.98387 -101.47064 5915 ft 17 kts 134°
2026-05-08 20:15 20.98308 -101.46980 5914 ft 12 kts 147°
2026-05-08 20:15 20.98224 -101.46959 5913 ft 9 kts 142°
2026-05-08 20:16 20.98228 -101.46905 5913 ft 5 kts 24°
2026-05-08 20:16 20.98256 -101.46918 5913 ft 3 kts 316°
2026-05-08 20:16 20.98258 -101.46921 5913 ft 0 kts 314°
2026-05-08 20:17 20.98335 -101.47006 5914 ft 46 kts 315°
2026-05-08 20:17 20.98717 -101.47424 5920 ft 110 kts 315°
2026-05-08 20:17 20.99381 -101.48156 5929 ft 163 kts 314°
2026-05-08 20:17 21.00292 -101.49138 6055 ft 195 kts 315°
2026-05-08 20:18 21.01243 -101.50190 6537 ft 201 kts 311°
2026-05-08 20:18 21.02121 -101.51340 7173 ft 202 kts 307°
2026-05-08 20:18 21.02968 -101.52534 7786 ft 201 kts 306°
2026-05-08 20:18 21.03831 -101.53737 8025 ft 208 kts 307°
2026-05-08 20:19 21.04746 -101.54987 8211 ft 217 kts 307°
2026-05-08 20:19 21.05708 -101.56277 8399 ft 227 kts 308°
2026-05-08 20:19 21.06725 -101.57627 8588 ft 237 kts 307°
2026-05-08 20:19 21.07778 -101.59021 8768 ft 247 kts 308°
2026-05-08 20:20 21.08891 -101.60487 8864 ft 263 kts 308°
2026-05-08 20:20 21.10079 -101.62053 9077 ft 274 kts 308°
2026-05-08 20:20 21.11294 -101.63653 9283 ft 285 kts 308°
2026-05-08 20:20 21.12585 -101.65339 9595 ft 293 kts 310°
2026-05-08 20:21 21.14104 -101.66827 10041 ft 297 kts 320°
2026-05-08 20:21 21.15740 -101.68163 10445 ft 302 kts 321°
2026-05-08 20:21 21.17467 -101.69551 10658 ft 314 kts 320°
2026-05-08 20:21 21.19168 -101.71070 10871 ft 325 kts 316°
2026-05-08 20:22 21.20421 -101.72353 11125 ft 330 kts 312°
2026-05-08 20:22 21.21918 -101.74056 11566 ft 331 kts 311°
2026-05-08 20:22 21.23464 -101.75867 11978 ft 334 kts 310°
2026-05-08 20:22 21.25036 -101.77716 12417 ft 336 kts 310°
2026-05-08 20:23 21.26600 -101.79555 12891 ft 337 kts 310°
2026-05-08 20:23 21.28202 -101.81433 13364 ft 339 kts 310°
2026-05-08 20:23 21.29781 -101.83280 13819 ft 341 kts 310°
2026-05-08 20:23 21.31390 -101.85158 14273 ft 343 kts 310°
2026-05-08 20:24 21.33028 -101.87072 14738 ft 346 kts 310°
2026-05-08 20:24 21.34656 -101.88979 15196 ft 348 kts 310°
2026-05-08 20:24 21.36280 -101.90881 15664 ft 351 kts 310°
2026-05-08 20:24 21.37934 -101.92821 16144 ft 353 kts 310°
2026-05-08 20:25 21.39586 -101.94759 16610 ft 355 kts 310°
2026-05-08 20:25 21.41262 -101.96725 17084 ft 358 kts 310°
2026-05-08 20:25 21.42960 -101.98719 17545 ft 360 kts 310°
2026-05-08 20:25 21.44659 -102.00707 17983 ft 363 kts 310°
2026-05-08 20:26 21.46348 -102.02683 18414 ft 365 kts 310°
2026-05-08 20:26 21.48086 -102.04718 18839 ft 367 kts 310°
2026-05-08 20:26 21.49792 -102.06720 19238 ft 369 kts 309°
2026-05-08 20:26 21.51534 -102.08767 19629 ft 372 kts 309°
2026-05-08 20:27 21.53278 -102.10816 20031 ft 373 kts 309°
2026-05-08 20:27 21.55032 -102.12880 20423 ft 375 kts 309°
2026-05-08 20:27 21.56800 -102.14962 20798 ft 377 kts 309°
2026-05-08 20:27 21.58570 -102.17044 21159 ft 379 kts 309°
2026-05-08 20:28 21.60360 -102.19151 21531 ft 381 kts 309°
2026-05-08 20:28 21.62147 -102.21257 21892 ft 383 kts 309°
2026-05-08 20:28 21.63932 -102.23363 22239 ft 384 kts 309°
2026-05-08 20:28 21.65750 -102.25507 22585 ft 386 kts 309°
2026-05-08 20:29 21.67550 -102.27631 22925 ft 388 kts 309°
2026-05-08 20:29 21.69354 -102.29759 23283 ft 388 kts 309°
2026-05-08 20:29 21.71206 -102.31921 23642 ft 390 kts 310°
2026-05-08 20:29 21.73107 -102.33987 23978 ft 392 kts 311°
2026-05-08 20:30 21.75031 -102.36052 24282 ft 394 kts 311°
2026-05-08 20:30 21.76980 -102.38140 24595 ft 395 kts 311°
2026-05-08 20:30 21.78934 -102.40237 24918 ft 396 kts 310°
2026-05-08 20:30 21.80875 -102.42323 25210 ft 398 kts 310°
2026-05-08 20:31 21.82859 -102.44456 25510 ft 400 kts 310°
2026-05-08 20:31 21.84813 -102.46564 25814 ft 401 kts 310°
2026-05-08 20:31 21.86782 -102.48684 26126 ft 402 kts 310°
2026-05-08 20:31 21.88745 -102.50800 26423 ft 403 kts 310°
2026-05-08 20:32 21.90746 -102.52959 26708 ft 404 kts 310°
2026-05-08 20:32 21.92733 -102.55103 27000 ft 405 kts 310°
2026-05-08 20:32 21.94704 -102.57231 27289 ft 406 kts 310°
2026-05-08 20:32 21.96727 -102.59416 27541 ft 408 kts 310°
2026-05-08 20:33 21.98735 -102.61587 27790 ft 410 kts 310°
2026-05-08 20:33 22.00743 -102.63757 28055 ft 411 kts 310°
2026-05-08 20:33 22.02760 -102.65940 28306 ft 413 kts 310°
2026-05-08 20:33 22.04770 -102.68116 28574 ft 414 kts 309°
2026-05-08 20:34 22.06817 -102.70330 28844 ft 416 kts 309°
2026-05-08 20:34 22.08869 -102.72551 29120 ft 417 kts 309°
2026-05-08 20:34 22.12949 -102.76971 29644 ft 420 kts 309°
2026-05-08 20:35 22.15015 -102.79215 29874 ft 422 kts 309°
2026-05-08 20:35 22.17114 -102.81489 30124 ft 424 kts 309°
2026-05-08 20:35 22.19184 -102.83735 30363 ft 425 kts 309°
2026-05-08 20:35 22.21264 -102.85995 30590 ft 427 kts 309°
2026-05-08 20:36 22.23352 -102.88265 30824 ft 429 kts 308°
2026-05-08 20:36 22.25484 -102.90582 31068 ft 430 kts 308°
2026-05-08 20:36 22.27582 -102.92864 31307 ft 431 kts 308°
2026-05-08 20:36 22.29703 -102.95171 31539 ft 433 kts 308°
2026-05-08 20:37 22.31805 -102.97457 31813 ft 433 kts 308°
2026-05-08 20:37 22.33931 -102.99772 32119 ft 432 kts 308°
2026-05-08 20:37 22.36041 -103.02068 32438 ft 430 kts 308°
2026-05-08 20:37 22.38140 -103.04353 32737 ft 430 kts 308°
2026-05-08 20:38 22.40282 -103.06689 33032 ft 429 kts 308°
2026-05-08 20:38 22.42364 -103.08961 33335 ft 429 kts 308°
2026-05-08 20:38 22.44476 -103.11266 33677 ft 427 kts 308°
2026-05-08 20:38 22.46555 -103.13535 34010 ft 426 kts 308°
2026-05-08 20:39 22.48647 -103.15821 34310 ft 425 kts 308°
2026-05-08 20:39 22.50705 -103.18070 34605 ft 424 kts 307°
2026-05-08 20:39 22.52791 -103.20351 34882 ft 423 kts 307°
2026-05-08 20:39 22.54867 -103.22622 35148 ft 423 kts 307°
2026-05-08 20:40 22.56918 -103.24867 35398 ft 423 kts 307°
2026-05-08 20:40 22.58976 -103.27122 35583 ft 424 kts 307°
2026-05-08 20:40 22.61071 -103.29418 35727 ft 426 kts 307°
2026-05-08 20:40 22.63136 -103.31681 35867 ft 427 kts 307°
2026-05-08 20:41 22.65238 -103.33988 36049 ft 428 kts 307°
2026-05-08 20:41 22.67310 -103.36262 36222 ft 428 kts 307°
2026-05-08 20:41 22.69414 -103.38570 36376 ft 429 kts 307°
2026-05-08 20:42 22.73619 -103.43188 36372 ft 430 kts 307°
2026-05-08 20:42 22.77795 -103.47778 36363 ft 430 kts 307°
2026-05-08 20:43 22.81996 -103.52402 36357 ft 429 kts 307°
2026-05-08 20:43 22.86181 -103.57011 36352 ft 430 kts 307°
2026-05-08 20:44 22.90414 -103.61678 36356 ft 430 kts 306°
2026-05-08 20:44 22.94594 -103.66293 36366 ft 431 kts 306°
2026-05-08 20:45 22.98823 -103.70963 36372 ft 430 kts 306°
2026-05-08 20:45 23.03009 -103.75595 36374 ft 430 kts 306°
2026-05-08 20:46 23.07209 -103.80248 36367 ft 430 kts 306°
2026-05-08 20:46 23.11400 -103.84894 36358 ft 431 kts 306°
2026-05-08 20:47 23.15592 -103.89527 36352 ft 430 kts 306°
2026-05-08 20:47 23.19780 -103.94167 36362 ft 430 kts 306°
2026-05-08 20:48 23.23942 -103.98785 36369 ft 429 kts 306°
2026-05-08 20:48 23.28114 -104.03423 36371 ft 428 kts 306°
2026-05-08 20:49 23.32273 -104.08055 36368 ft 428 kts 306°
2026-05-08 20:49 23.36449 -104.12708 36362 ft 428 kts 306°
2026-05-08 20:50 23.40621 -104.17359 36360 ft 429 kts 306°
2026-05-08 20:50 23.44788 -104.21992 36362 ft 429 kts 306°
2026-05-08 20:51 23.48948 -104.26623 36367 ft 428 kts 306°
2026-05-08 20:51 23.53108 -104.31266 36358 ft 428 kts 306°
2026-05-08 20:52 23.57277 -104.35927 36338 ft 427 kts 306°
2026-05-08 20:52 23.61398 -104.40540 36324 ft 428 kts 305°
2026-05-08 20:53 23.65542 -104.45182 36314 ft 426 kts 305°
2026-05-08 20:53 23.69693 -104.49837 36314 ft 426 kts 305°
2026-05-08 20:54 23.73819 -104.54469 36323 ft 426 kts 305°
2026-05-08 20:54 23.77917 -104.59075 36330 ft 426 kts 305°
2026-05-08 20:55 23.82065 -104.63739 36327 ft 426 kts 305°
2026-05-08 20:55 23.86165 -104.68356 36321 ft 425 kts 305°
2026-05-08 20:56 23.90289 -104.73003 36328 ft 425 kts 305°
2026-05-08 20:56 23.94416 -104.77660 36334 ft 424 kts 305°
2026-05-08 20:57 23.98539 -104.82315 36350 ft 425 kts 305°
2026-05-08 20:57 24.02678 -104.86992 36368 ft 426 kts 305°
2026-05-08 20:58 24.06785 -104.91640 36392 ft 426 kts 305°
2026-05-08 20:58 24.10906 -104.96307 36408 ft 426 kts 305°
2026-05-08 20:59 24.15054 -105.01009 36419 ft 426 kts 305°
2026-05-08 20:59 24.19148 -105.05651 36417 ft 426 kts 305°
2026-05-08 21:00 24.23270 -105.10334 36428 ft 425 kts 305°
2026-05-08 21:00 24.27386 -105.15009 36399 ft 424 kts 304°
2026-05-08 21:01 24.31497 -105.19690 36387 ft 424 kts 304°
2026-05-08 21:01 24.35568 -105.24329 36375 ft 423 kts 304°
2026-05-08 21:02 24.39651 -105.28986 36368 ft 423 kts 304°
2026-05-08 21:02 24.43709 -105.33619 36366 ft 424 kts 304°
2026-05-08 21:03 24.47799 -105.38294 36363 ft 423 kts 304°
2026-05-08 21:03 24.51875 -105.42955 36368 ft 423 kts 304°
2026-05-08 21:04 24.55943 -105.47613 36371 ft 424 kts 304°
2026-05-08 21:04 24.60011 -105.52277 36371 ft 423 kts 304°
2026-05-08 21:05 24.64092 -105.56959 36368 ft 423 kts 304°
2026-05-08 21:05 24.68150 -105.61620 36369 ft 423 kts 304°
2026-05-08 21:06 24.72224 -105.66304 36363 ft 423 kts 304°
2026-05-08 21:06 24.76290 -105.70982 36363 ft 422 kts 303°
2026-05-08 21:07 24.80349 -105.75661 36367 ft 423 kts 304°
2026-05-08 21:07 24.84416 -105.80351 36357 ft 423 kts 304°
2026-05-08 21:08 24.88494 -105.85060 36369 ft 422 kts 304°
2026-05-08 21:08 24.92539 -105.89737 36372 ft 423 kts 304°
2026-05-08 21:09 24.96605 -105.94443 36379 ft 424 kts 304°
2026-05-08 21:09 25.00672 -105.99161 36386 ft 425 kts 304°
2026-05-08 21:10 25.04748 -106.03883 36393 ft 426 kts 304°
2026-05-08 21:10 25.08852 -106.08627 36381 ft 425 kts 304°
2026-05-08 21:11 25.12918 -106.13346 36372 ft 424 kts 303°
2026-05-08 21:11 25.16970 -106.18057 36365 ft 422 kts 304°
2026-05-08 21:12 25.20986 -106.22730 36354 ft 421 kts 303°
2026-05-08 21:12 25.25032 -106.27447 36342 ft 423 kts 303°
2026-05-08 21:13 25.29067 -106.32154 36332 ft 422 kts 303°
2026-05-08 21:13 25.33077 -106.36842 36328 ft 422 kts 303°
2026-05-08 21:14 25.37127 -106.41576 36339 ft 421 kts 303°
2026-05-08 21:14 25.41108 -106.46233 36309 ft 419 kts 303°
2026-05-08 21:15 25.45106 -106.50919 36320 ft 419 kts 303°
2026-05-08 21:15 25.49124 -106.55636 36306 ft 421 kts 303°
2026-05-08 21:16 25.53131 -106.60338 36311 ft 420 kts 303°
2026-05-08 21:16 25.57120 -106.65025 36309 ft 418 kts 303°
2026-05-08 21:17 25.61112 -106.69724 36293 ft 417 kts 302°
2026-05-08 21:17 25.65075 -106.74394 36294 ft 418 kts 302°
2026-05-08 21:18 25.69045 -106.79069 36286 ft 417 kts 302°
2026-05-08 21:18 25.73020 -106.83762 36280 ft 417 kts 302°
2026-05-08 21:19 25.77002 -106.88469 36286 ft 419 kts 302°
2026-05-08 21:19 25.80983 -106.93176 36278 ft 415 kts 302°
2026-05-08 21:20 25.84947 -106.97867 36289 ft 418 kts 302°
2026-05-08 21:20 25.88904 -107.02560 36296 ft 416 kts 302°
2026-05-08 21:21 25.92828 -107.07218 36264 ft 416 kts 302°
2026-05-08 21:21 25.96785 -107.11919 36275 ft 418 kts 302°
2026-05-08 21:22 26.00740 -107.16624 36229 ft 417 kts 302°
2026-05-08 21:22 26.04723 -107.21359 36234 ft 416 kts 302°
2026-05-08 21:23 26.08679 -107.26075 36215 ft 416 kts 302°
2026-05-08 21:23 26.12612 -107.30767 36207 ft 416 kts 302°
2026-05-08 21:24 26.16575 -107.35499 36213 ft 417 kts 302°
2026-05-08 21:24 26.20502 -107.40192 36223 ft 416 kts 302°
2026-05-08 21:25 26.24465 -107.44931 36216 ft 417 kts 302°
2026-05-08 21:25 26.28385 -107.49629 36194 ft 414 kts 302°
2026-05-08 21:26 26.32314 -107.54339 36192 ft 415 kts 302°
2026-05-08 21:26 26.36227 -107.59042 36145 ft 415 kts 302°
2026-05-08 21:27 26.40151 -107.63758 36147 ft 415 kts 302°
2026-05-08 21:27 26.44086 -107.68491 36144 ft 416 kts 302°
2026-05-08 21:28 26.48018 -107.73225 36155 ft 413 kts 302°
2026-05-08 21:28 26.51925 -107.77939 36152 ft 416 kts 302°
2026-05-08 21:29 26.55852 -107.82682 36155 ft 415 kts 302°
2026-05-08 21:29 26.59754 -107.87395 36134 ft 412 kts 302°
2026-05-08 21:30 26.63669 -107.92139 36138 ft 414 kts 302°
2026-05-08 21:30 26.67562 -107.96854 36140 ft 415 kts 302°
2026-05-08 21:31 26.71463 -108.01594 36139 ft 414 kts 302°
2026-05-08 21:31 26.75374 -108.06330 36125 ft 412 kts 302°
2026-05-08 21:32 26.79254 -108.11032 36093 ft 412 kts 302°
2026-05-08 21:32 26.83118 -108.15731 36038 ft 411 kts 302°
2026-05-08 21:33 26.87025 -108.20493 35996 ft 415 kts 302°
2026-05-08 21:33 26.90899 -108.25221 35962 ft 413 kts 302°
2026-05-08 21:34 26.94798 -108.29979 35943 ft 414 kts 303°
2026-05-08 21:34 26.98690 -108.34737 35941 ft 414 kts 303°
2026-05-08 21:35 27.02564 -108.39479 35938 ft 414 kts 303°
2026-05-08 21:35 27.06480 -108.44276 35945 ft 416 kts 303°
2026-05-08 21:36 27.10371 -108.49049 35945 ft 417 kts 303°
2026-05-08 21:36 27.14274 -108.53841 35948 ft 414 kts 303°
2026-05-08 21:37 27.18185 -108.58656 35959 ft 416 kts 304°
2026-05-08 21:37 27.22093 -108.63461 35967 ft 416 kts 304°
2026-05-08 21:38 27.25990 -108.68265 35965 ft 414 kts 304°
2026-05-08 21:38 27.29874 -108.73051 35969 ft 415 kts 304°
2026-05-08 21:39 27.33768 -108.77863 35964 ft 415 kts 304°
2026-05-08 21:39 27.37642 -108.82650 35973 ft 414 kts 304°
2026-05-08 21:40 27.41545 -108.87479 35977 ft 415 kts 304°
2026-05-08 21:40 27.45414 -108.92276 35985 ft 415 kts 304°
2026-05-08 21:41 27.51254 -108.99523 36019 ft 416 kts 305°
2026-05-08 21:41 27.55139 -109.04351 36013 ft 415 kts 305°
2026-05-08 21:42 27.59005 -109.09156 35988 ft 415 kts 306°
2026-05-08 21:42 27.62880 -109.13985 35962 ft 415 kts 306°
2026-05-08 21:43 27.66788 -109.18859 35936 ft 417 kts 306°
2026-05-08 21:43 27.70670 -109.23703 35923 ft 417 kts 306°
2026-05-08 21:44 27.74587 -109.28602 35921 ft 419 kts 307°
2026-05-08 21:44 27.78477 -109.33464 35926 ft 418 kts 307°
2026-05-08 21:45 27.82366 -109.38336 35927 ft 418 kts 307°
2026-05-08 21:45 27.86259 -109.43218 35931 ft 419 kts 307°
2026-05-08 21:46 27.90159 -109.48113 35930 ft 418 kts 307°
2026-05-08 21:46 27.94072 -109.53031 35928 ft 419 kts 307°
2026-05-08 21:47 27.97968 -109.57934 35916 ft 419 kts 307°
2026-05-08 21:47 28.01870 -109.62850 35896 ft 419 kts 307°
2026-05-08 21:48 28.05766 -109.67767 35889 ft 419 kts 307°
2026-05-08 21:48 28.09667 -109.72691 35879 ft 420 kts 307°
2026-05-08 21:49 28.13584 -109.77647 35877 ft 420 kts 308°
2026-05-08 21:49 28.17487 -109.82587 35886 ft 420 kts 308°
2026-05-08 21:50 28.21404 -109.87550 35887 ft 421 kts 308°
2026-05-08 21:50 28.25323 -109.92523 35875 ft 421 kts 308°
2026-05-08 21:51 28.29221 -109.97475 35881 ft 421 kts 308°
2026-05-08 21:51 28.33132 -110.02447 35880 ft 422 kts 308°
2026-05-08 21:52 28.37018 -110.07401 35883 ft 423 kts 308°
2026-05-08 21:52 28.40953 -110.12417 35891 ft 424 kts 309°
2026-05-08 21:53 28.44847 -110.17387 35898 ft 423 kts 309°
2026-05-08 21:53 28.48767 -110.22398 35893 ft 423 kts 309°
2026-05-08 21:54 28.52681 -110.27405 35896 ft 423 kts 309°
2026-05-08 21:54 28.56591 -110.32416 35900 ft 425 kts 309°
2026-05-08 21:55 28.60497 -110.37423 35899 ft 425 kts 309°
2026-05-08 21:56 28.66403 -110.45011 35912 ft 426 kts 310°
2026-05-08 21:56 28.70347 -110.50086 35915 ft 427 kts 310°
2026-05-08 21:57 28.74273 -110.55145 35919 ft 427 kts 310°
2026-05-08 21:57 28.78231 -110.60251 35915 ft 428 kts 310°
2026-05-08 21:58 28.82179 -110.65346 35907 ft 428 kts 310°
2026-05-08 21:58 28.86138 -110.70469 35903 ft 429 kts 310°
2026-05-08 21:59 28.90064 -110.75555 35896 ft 430 kts 310°
2026-05-08 21:59 28.94016 -110.80679 35896 ft 431 kts 310°
2026-05-08 22:00 28.97990 -110.85841 35891 ft 433 kts 310°
2026-05-08 22:00 29.01947 -110.90986 35893 ft 432 kts 310°
2026-05-08 22:01 29.05913 -110.96152 35897 ft 434 kts 310°
2026-05-08 22:01 29.09909 -111.01357 35911 ft 433 kts 310°
2026-05-08 22:02 29.13900 -111.06543 35916 ft 433 kts 310°
2026-05-08 22:02 29.17874 -111.11723 35913 ft 433 kts 310°
2026-05-08 22:03 29.21839 -111.16901 35907 ft 434 kts 310°
2026-05-08 22:03 29.25807 -111.22089 35910 ft 434 kts 310°
2026-05-08 22:04 29.29777 -111.27292 35907 ft 435 kts 310°
2026-05-08 22:04 29.33758 -111.32513 35901 ft 434 kts 310°
2026-05-08 22:05 29.37726 -111.37723 35903 ft 435 kts 310°
2026-05-08 22:05 29.41715 -111.42971 35906 ft 434 kts 311°
2026-05-08 22:06 29.45698 -111.48216 35909 ft 435 kts 311°
2026-05-08 22:06 29.49667 -111.53450 35914 ft 435 kts 311°
2026-05-08 22:07 29.53631 -111.58682 35914 ft 435 kts 311°
2026-05-08 22:07 29.57592 -111.63917 35918 ft 435 kts 311°
2026-05-08 22:08 29.61562 -111.69173 35930 ft 436 kts 310°
2026-05-08 22:08 29.65541 -111.74448 35942 ft 436 kts 310°
2026-05-08 22:09 29.69524 -111.79733 35961 ft 437 kts 310°
2026-05-08 22:09 29.73507 -111.85029 35975 ft 436 kts 310°
2026-05-08 22:10 29.77471 -111.90303 35977 ft 437 kts 310°
2026-05-08 22:10 29.81438 -111.95588 35972 ft 437 kts 310°
2026-05-08 22:11 29.85431 -112.00916 35974 ft 438 kts 311°
2026-05-08 22:11 29.89403 -112.06222 35975 ft 439 kts 311°
2026-05-08 22:12 29.93382 -112.11546 35978 ft 438 kts 311°
2026-05-08 22:12 29.97348 -112.16859 35980 ft 438 kts 311°
2026-05-08 22:13 30.01336 -112.22207 35983 ft 438 kts 311°
2026-05-08 22:13 30.05281 -112.27505 35980 ft 439 kts 311°
2026-05-08 22:14 30.09282 -112.32887 35958 ft 439 kts 311°
2026-05-08 22:14 30.13250 -112.38233 35947 ft 440 kts 311°
2026-05-08 22:15 30.17231 -112.43600 35935 ft 440 kts 311°
2026-05-08 22:15 30.21201 -112.48962 35936 ft 440 kts 311°
2026-05-08 22:16 30.25158 -112.54313 35933 ft 439 kts 311°
2026-05-08 22:16 30.29132 -112.59695 35918 ft 439 kts 311°
2026-05-08 22:17 30.33104 -112.65080 35893 ft 440 kts 310°
2026-05-08 22:17 30.37058 -112.70450 35882 ft 440 kts 310°
2026-05-08 22:18 30.41003 -112.75813 35871 ft 440 kts 310°
2026-05-08 22:18 30.44993 -112.81245 35864 ft 442 kts 310°
2026-05-08 22:19 30.48951 -112.86644 35854 ft 442 kts 310°
2026-05-08 22:19 30.52924 -112.92069 35855 ft 442 kts 310°
2026-05-08 22:20 30.56892 -112.97492 35855 ft 441 kts 310°
2026-05-08 22:20 30.60854 -113.02916 35858 ft 441 kts 310°
2026-05-08 22:21 30.64810 -113.08340 35859 ft 441 kts 310°
2026-05-08 22:21 30.68785 -113.13796 35854 ft 442 kts 310°
2026-05-08 22:22 30.72743 -113.19238 35852 ft 442 kts 310°
2026-05-08 22:22 30.76694 -113.24678 35848 ft 442 kts 310°
2026-05-08 22:23 30.80649 -113.30132 35848 ft 442 kts 310°
2026-05-08 22:23 30.84602 -113.35590 35846 ft 442 kts 310°
2026-05-08 22:24 30.88563 -113.41066 35845 ft 442 kts 310°
2026-05-08 22:24 30.92503 -113.46519 35841 ft 442 kts 310°
2026-05-08 22:25 30.96466 -113.52016 35840 ft 442 kts 310°
2026-05-08 22:25 31.00416 -113.57500 35838 ft 442 kts 310°
2026-05-08 22:26 31.04351 -113.62972 35840 ft 442 kts 310°
2026-05-08 22:26 31.08300 -113.68470 35844 ft 442 kts 310°
2026-05-08 22:27 31.12213 -113.73924 35843 ft 442 kts 310°
2026-05-08 22:27 31.16166 -113.79445 35846 ft 442 kts 310°
2026-05-08 22:28 31.20094 -113.84939 35844 ft 442 kts 310°
2026-05-08 22:28 31.24036 -113.90459 35843 ft 442 kts 310°
2026-05-08 22:29 31.27982 -113.95995 35843 ft 442 kts 310°
2026-05-08 22:29 31.31891 -114.01484 35844 ft 442 kts 310°
2026-05-08 22:30 31.35823 -114.07011 35843 ft 441 kts 310°
2026-05-08 22:30 31.39752 -114.12546 35842 ft 441 kts 310°
2026-05-08 22:31 31.43673 -114.18077 35842 ft 441 kts 310°
2026-05-08 22:31 31.47606 -114.23634 35839 ft 441 kts 310°
2026-05-08 22:32 31.51501 -114.29144 35838 ft 441 kts 310°
2026-05-08 22:32 31.55432 -114.34713 35838 ft 441 kts 310°
2026-05-08 22:33 31.59326 -114.40238 35838 ft 441 kts 310°
2026-05-08 22:33 31.63230 -114.45785 35839 ft 440 kts 310°
2026-05-08 22:34 31.67109 -114.51307 35844 ft 440 kts 310°
2026-05-08 22:34 31.71011 -114.56872 35845 ft 440 kts 310°
2026-05-08 22:35 31.74895 -114.62419 35840 ft 440 kts 309°
2026-05-08 22:35 31.78786 -114.67985 35834 ft 440 kts 309°
2026-05-08 22:36 31.82565 -114.73587 35736 ft 441 kts 306°
2026-05-08 22:36 31.84306 -114.76595 35233 ft 444 kts 302°
2026-05-08 22:36 31.85881 -114.79695 34381 ft 447 kts 299°
2026-05-08 22:36 31.87304 -114.82928 33345 ft 453 kts 296°
2026-05-08 22:37 31.88592 -114.86350 32363 ft 458 kts 292°
2026-05-08 22:37 31.89747 -114.89846 31519 ft 460 kts 291°
2026-05-08 22:37 31.90873 -114.93339 30941 ft 455 kts 291°
2026-05-08 22:37 31.91975 -114.96775 30439 ft 450 kts 291°
2026-05-08 22:38 31.93071 -115.00190 29932 ft 445 kts 291°
2026-05-08 22:38 31.94156 -115.03566 29428 ft 440 kts 291°
2026-05-08 22:38 31.95225 -115.06893 28928 ft 436 kts 291°
2026-05-08 22:38 31.96295 -115.10224 28441 ft 431 kts 291°
2026-05-08 22:39 31.97337 -115.13476 27966 ft 426 kts 292°
2026-05-08 22:39 31.98380 -115.16706 27491 ft 422 kts 292°
2026-05-08 22:39 31.99424 -115.19942 27011 ft 418 kts 292°
2026-05-08 22:39 32.00445 -115.23113 26539 ft 415 kts 292°
2026-05-08 22:40 32.01456 -115.26263 26062 ft 411 kts 292°
2026-05-08 22:40 32.02461 -115.29403 25589 ft 408 kts 292°
2026-05-08 22:40 32.03449 -115.32497 25136 ft 404 kts 292°
2026-05-08 22:40 32.04429 -115.35571 24682 ft 400 kts 292°
2026-05-08 22:41 32.05404 -115.38630 24222 ft 397 kts 292°
2026-05-08 22:41 32.06360 -115.41634 23764 ft 393 kts 292°
2026-05-08 22:41 32.07310 -115.44621 23305 ft 390 kts 292°
2026-05-08 22:41 32.08257 -115.47601 22861 ft 386 kts 292°
2026-05-08 22:42 32.09194 -115.50555 22425 ft 383 kts 292°
2026-05-08 22:42 32.10113 -115.53454 22002 ft 380 kts 292°
2026-05-08 22:42 32.11043 -115.56390 21560 ft 377 kts 292°
2026-05-08 22:42 32.11954 -115.59268 21129 ft 375 kts 292°
2026-05-08 22:43 32.12857 -115.62127 20685 ft 373 kts 293°
2026-05-08 22:43 32.13755 -115.64967 20240 ft 371 kts 292°
2026-05-08 22:43 32.14656 -115.67823 19790 ft 369 kts 292°
2026-05-08 22:43 32.15544 -115.70639 19350 ft 367 kts 292°
2026-05-08 22:44 32.16429 -115.73445 18927 ft 364 kts 292°
2026-05-08 22:44 32.17305 -115.76232 18511 ft 362 kts 292°
2026-05-08 22:44 32.18179 -115.79011 18093 ft 360 kts 292°
2026-05-08 22:44 32.19048 -115.81775 17688 ft 358 kts 292°
2026-05-08 22:45 32.19904 -115.84499 17286 ft 356 kts 292°
2026-05-08 22:45 32.20765 -115.87246 16890 ft 354 kts 292°
2026-05-08 22:45 32.21612 -115.89951 16501 ft 352 kts 292°
2026-05-08 22:45 32.22459 -115.92658 16108 ft 351 kts 292°
2026-05-08 22:46 32.23292 -115.95322 15715 ft 349 kts 292°
2026-05-08 22:46 32.24128 -115.97998 15314 ft 348 kts 292°
2026-05-08 22:46 32.24960 -116.00663 14897 ft 348 kts 292°
2026-05-08 22:46 32.25800 -116.03355 14444 ft 347 kts 291°
2026-05-08 22:47 32.26634 -116.06031 13995 ft 346 kts 292°
2026-05-08 22:47 32.27461 -116.08685 13558 ft 345 kts 291°
2026-05-08 22:47 32.28286 -116.11337 13125 ft 344 kts 291°
2026-05-08 22:47 32.29109 -116.13985 12689 ft 343 kts 291°
2026-05-08 22:48 32.29917 -116.16586 12269 ft 341 kts 291°
2026-05-08 22:48 32.30733 -116.19214 11848 ft 339 kts 291°
2026-05-08 22:48 32.31533 -116.21800 11452 ft 336 kts 291°
2026-05-08 22:48 32.32340 -116.24407 11025 ft 335 kts 291°
2026-05-08 22:49 32.33126 -116.26945 10592 ft 333 kts 291°
2026-05-08 22:49 32.34669 -116.31947 10219 ft 311 kts 291°
2026-05-08 22:49 32.35398 -116.34309 10055 ft 300 kts 291°
2026-05-08 22:50 32.36102 -116.36594 9673 ft 299 kts 291°
2026-05-08 22:50 32.36817 -116.38907 9286 ft 297 kts 291°
2026-05-08 22:50 32.37517 -116.41176 8924 ft 295 kts 291°
2026-05-08 22:50 32.38212 -116.43433 8574 ft 292 kts 291°
2026-05-08 22:51 32.38905 -116.45683 8230 ft 289 kts 291°
2026-05-08 22:51 32.39537 -116.47942 7884 ft 287 kts 287°
2026-05-08 22:51 32.39978 -116.50212 7541 ft 285 kts 281°
2026-05-08 22:51 32.40296 -116.52498 7197 ft 282 kts 280°
2026-05-08 22:52 32.40596 -116.54781 6832 ft 275 kts 280°
2026-05-08 22:52 32.40881 -116.56961 6485 ft 267 kts 280°
2026-05-08 22:52 32.41163 -116.59100 6159 ft 260 kts 280°
2026-05-08 22:52 32.41438 -116.61178 5828 ft 254 kts 280°
2026-05-08 22:53 32.41710 -116.63216 5525 ft 248 kts 281°
2026-05-08 22:53 32.42048 -116.65208 5240 ft 242 kts 285°
2026-05-08 22:53 32.42499 -116.67079 5192 ft 232 kts 288°
2026-05-08 22:53 32.42956 -116.68845 5147 ft 220 kts 288°
2026-05-08 22:54 32.43395 -116.70530 5169 ft 206 kts 289°
2026-05-08 22:54 32.43807 -116.72102 5044 ft 193 kts 289°
2026-05-08 22:54 32.44200 -116.73601 4762 ft 188 kts 289°
2026-05-08 22:54 32.44579 -116.75053 4487 ft 181 kts 289°
2026-05-08 22:55 32.44943 -116.76449 4257 ft 174 kts 289°
2026-05-08 22:55 32.45288 -116.77777 4024 ft 167 kts 289°
2026-05-08 22:55 32.45622 -116.79066 3796 ft 159 kts 289°
2026-05-08 22:55 32.45937 -116.80286 3588 ft 153 kts 290°
2026-05-08 22:56 32.46246 -116.81481 3402 ft 152 kts 290°
2026-05-08 22:56 32.46633 -116.82639 3205 ft 151 kts 302°
2026-05-08 22:56 32.47223 -116.83637 3046 ft 145 kts 313°
2026-05-08 22:56 32.47954 -116.84421 2825 ft 139 kts 325°
2026-05-08 22:57 32.48790 -116.84993 2645 ft 138 kts 336°
2026-05-08 22:57 32.49671 -116.85409 2466 ft 137 kts 339°
2026-05-08 22:57 32.50523 -116.85922 2274 ft 137 kts 323°
2026-05-08 22:57 32.51223 -116.86675 2063 ft 136 kts 314°
2026-05-08 22:58 32.51855 -116.87515 1885 ft 136 kts 305°
2026-05-08 22:58 32.52324 -116.88491 1712 ft 136 kts 297°
2026-05-08 22:58 32.52731 -116.89494 1540 ft 135 kts 294°
2026-05-08 22:58 32.53080 -116.90526 1373 ft 135 kts 289°
2026-05-08 22:59 32.53337 -116.91590 1148 ft 135 kts 284°
2026-05-08 22:59 32.53534 -116.92667 947 ft 134 kts 281°
2026-05-08 22:59 32.53696 -116.93759 780 ft 134 kts 278°
2026-05-08 22:59 32.53826 -116.94847 599 ft 133 kts 279°
2026-05-08 23:00 32.53962 -116.95905 476 ft 126 kts 279°
2026-05-08 23:00 32.54074 -116.96754 469 ft 79 kts 279°
2026-05-08 23:00 32.54136 -116.97169 465 ft 31 kts 288°
2026-05-08 23:00 32.54227 -116.97340 466 ft 16 kts 309°
2026-05-08 23:01 32.54297 -116.97407 467 ft 10 kts 341°
2026-05-08 23:01 32.54357 -116.97417 467 ft 6 kts 344°
2026-05-08 23:01 32.54379 -116.97454 467 ft 5 kts 285°
2026-05-08 23:01 32.54385 -116.97491 467 ft 3 kts 279°
2026-05-08 23:02 32.54388 -116.97510 468 ft 1 kts 279°
2026-05-08 23:02 32.54390 -116.97530 468 ft 4 kts 279°
2026-05-08 23:02 32.54398 -116.97569 469 ft 3 kts 296°
2026-05-08 23:02 32.54420 -116.97591 469 ft 4 kts 339°
2026-05-08 23:03 32.54457 -116.97591 469 ft 5 kts 12°
2026-05-08 23:03 32.54485 -116.97555 469 ft 6 kts 73°
2026-05-08 23:03 32.54496 -116.97510 468 ft 2 kts 73°
2026-05-08 23:03 32.54497 -116.97507 468 ft 0 kts 73°